Puyallup, WA

1:30 AM PDT on October 19, 2017 (GMT -0700)
Pierce County - Thun Field

Weather History for KPLU - October, 2013

Change the Weather History Date:

Wednesday, October 9, 2013

  Actual Average (KTCM) Record (KTCM)
Temperature  
Mean Temperature 44 °F -  
Max Temperature 57 °F 60 °F 80 °F (1996)
Min Temperature 32 °F 42 °F 30 °F (1960)
Degree Days  
Heating Degree Days 20    
Moisture  
Dew Point 41 °F    
Average Humidity 90    
Maximum Humidity 100    
Minimum Humidity 59    
Precipitation  
Precipitation 0.00 in - - ()
Sea Level Pressure  
Sea Level Pressure 30.07 in    
Wind  
Wind Speed 0 mph (North)    
Max Wind Speed 0 mph    
Max Gust Speed -    
Visibility 8 miles    
Events Fog    
Averages and records for this station are not official NWS values.
T = Trace of Precipitation, MM = Missing Value Source: NWS Daily Summary

Daily Weather History Graph

Daily Weather History Graph

Search for Another Location

Airport or City:

Trip Planner

Search our weather history database for the weather conditions in past years. The results will help you decide how hot, cold, wet, or windy it might be!

Date:

Astronomy

Oct. 09, 2013 Rise Set
Actual Time 7:19 AM PDT 6:32 PM PDT
Civil Twilight 6:48 AM PDT 7:02 PM PDT
Nautical Twilight 6:13 AM PDT 7:38 PM PDT
Astronomical Twilight 5:38 AM PDT 8:13 PM PDT
Moon 12:35 PM PDT (10/9) 9:56 PM PDT (10/9)
Length of Visible Light 12h 14m
Length of Day
11h 12m
Waxing Crescent, 26% of the Moon is Illuminated
Oct 9
Waxing Crescent
Oct 11
First Quarter
Oct 18
Full
Oct 26
Last Quarter
Nov 3
New

Hourly Weather History & Observations

Time (PDT) Temp. Dew Point Humidity Pressure Visibility Wind Dir Wind Speed Gust Speed Precip Events Conditions
12:15 AM 37.4 °F 37.4 °F 100% 30.08 in 1.2 mi Calm Calm - N/A   Mist
12:35 AM 37.4 °F 37.4 °F 100% 30.08 in 5.0 mi Calm Calm - N/A   Mist
12:55 AM 35.6 °F 35.6 °F 100% 30.09 in 0.2 mi Calm Calm - N/A Fog Fog
1:15 AM 35.6 °F 35.6 °F 100% 30.10 in 1.8 mi Calm Calm - N/A   Mist
1:35 AM 37.4 °F 37.4 °F 100% 30.11 in 7.0 mi Calm Calm - N/A   Unknown
1:55 AM 37.4 °F 37.4 °F 100% 30.11 in 9.0 mi Calm Calm - N/A   Unknown
2:15 AM 35.6 °F 35.6 °F 100% 30.11 in 2.5 mi Calm Calm - N/A   Mist
2:35 AM 35.6 °F 35.6 °F 100% 30.11 in 3.0 mi Calm Calm - N/A   Mist
2:55 AM 35.6 °F 35.6 °F 100% 30.12 in 5.0 mi Calm Calm - N/A   Mist
3:15 AM 35.6 °F 35.6 °F 100% 30.11 in 2.5 mi Calm Calm - N/A   Mist
3:35 AM 35.6 °F 35.6 °F 100% 30.11 in 7.0 mi Calm Calm - N/A   Unknown
3:55 AM 35.6 °F 35.6 °F 100% 30.12 in 4.0 mi Calm Calm - N/A   Mist
4:15 AM 35.6 °F 35.6 °F 100% 30.12 in 8.0 mi Calm Calm - N/A   Unknown
4:35 AM 35.6 °F 35.6 °F 100% 30.12 in 6.0 mi Calm Calm - N/A   Mist
4:55 AM 35.6 °F 35.6 °F 100% 30.12 in 10.0 mi Calm Calm - N/A   Unknown
5:15 AM 35.6 °F 35.6 °F 100% 30.12 in 10.0 mi Calm Calm - N/A   Unknown
5:35 AM 35.6 °F 35.6 °F 100% 30.12 in 10.0 mi Calm Calm - N/A   Unknown
5:55 AM 35.6 °F 35.6 °F 100% 30.12 in 6.0 mi Calm Calm - N/A   Mist
6:15 AM 35.6 °F 35.6 °F 100% 30.12 in 8.0 mi Calm Calm - N/A   Unknown
6:35 AM 35.6 °F 35.6 °F 100% 30.12 in 5.0 mi Calm Calm - N/A   Mist
6:55 AM 32.0 °F 32.0 °F 100% 30.13 in 6.0 mi Calm Calm - N/A   Mist
7:15 AM 33.8 °F 33.8 °F 100% 30.13 in 10.0 mi Calm Calm - N/A   Unknown
7:35 AM 35.6 °F 35.6 °F 100% 30.14 in 10.0 mi Calm Calm - N/A   Unknown
7:55 AM 33.8 °F 33.8 °F 100% 30.14 in 3.0 mi Calm Calm - N/A   Mist
8:15 AM 35.6 °F 35.6 °F 100% 30.14 in 10.0 mi Calm Calm - N/A   Unknown
8:35 AM 35.6 °F 35.6 °F 100% 30.14 in 8.0 mi Calm Calm - N/A   Unknown
8:55 AM 39.2 °F 39.2 °F 100% 30.14 in 10.0 mi Calm Calm - N/A   Unknown
9:15 AM 39.2 °F 39.2 °F 100% 30.14 in 10.0 mi Calm Calm - N/A   Unknown
9:35 AM 42.8 °F 42.8 °F 100% 30.14 in 10.0 mi Calm Calm - N/A   Unknown
9:55 AM 44.6 °F 44.6 °F 100% 30.13 in 10.0 mi Calm Calm - N/A   Unknown
10:15 AM 48.2 °F 44.6 °F 87% 30.12 in 10.0 mi Calm Calm - N/A   Unknown
10:35 AM 50.0 °F 46.4 °F 87% 30.12 in 10.0 mi Calm Calm - N/A   Unknown
10:55 AM 50.0 °F 44.6 °F 82% 30.12 in 10.0 mi Calm Calm - N/A   Unknown
11:15 AM 51.8 °F 44.6 °F 76% 30.12 in 10.0 mi Calm Calm - N/A   Unknown
11:35 AM 50.0 °F 42.8 °F 76% 30.12 in 10.0 mi Calm Calm - N/A   Unknown
11:55 AM 51.8 °F 44.6 °F 76% 30.12 in 10.0 mi Calm Calm - N/A   Unknown
12:15 PM 51.8 °F 44.6 °F 76% 30.11 in 10.0 mi Calm Calm - N/A   Unknown
12:35 PM 53.6 °F 44.6 °F 72% 30.10 in 10.0 mi Calm Calm - N/A   Unknown
12:55 PM 53.6 °F 44.6 °F 72% 30.09 in 10.0 mi Calm Calm - N/A   Unknown
1:15 PM 53.6 °F 44.6 °F 72% 30.08 in 10.0 mi Calm Calm - N/A   Unknown
1:55 PM 55.4 °F 44.6 °F 67% 30.07 in 10.0 mi Calm Calm - N/A   Unknown
2:15 PM 55.4 °F 44.6 °F 67% 30.06 in 10.0 mi Calm Calm - N/A   Unknown
2:35 PM 53.6 °F 44.6 °F 72% 30.06 in 10.0 mi Calm Calm - N/A   Unknown
2:55 PM 55.4 °F 44.6 °F 67% 30.06 in 10.0 mi Calm Calm - N/A   Unknown
3:15 PM 55.4 °F 44.6 °F 67% 30.05 in 10.0 mi Calm Calm - N/A   Unknown
3:35 PM 55.4 °F 44.6 °F 67% 30.05 in 10.0 mi Calm Calm - N/A   Unknown
3:55 PM 57.2 °F 42.8 °F 59% 30.05 in 10.0 mi Calm Calm - N/A   Unknown
4:15 PM 57.2 °F 42.8 °F 59% 30.04 in 10.0 mi Calm Calm - N/A   Unknown
4:55 PM 57.2 °F 44.6 °F 63% 30.03 in 10.0 mi Calm Calm - N/A   Unknown
5:15 PM 57.2 °F 42.8 °F 59% 30.02 in 10.0 mi Calm Calm - N/A   Unknown
5:35 PM 55.4 °F 44.6 °F 67% 30.02 in 10.0 mi Calm Calm - N/A   Unknown
5:55 PM 55.4 °F 46.4 °F 72% 30.02 in 10.0 mi Calm Calm - N/A   Unknown
6:15 PM 50.0 °F 46.4 °F 87% 30.01 in 10.0 mi Calm Calm - N/A   Unknown
6:35 PM 48.2 °F 46.4 °F 93% 30.01 in 10.0 mi Calm Calm - N/A   Unknown
6:55 PM 46.4 °F 44.6 °F 93% 30.02 in 10.0 mi Calm Calm - N/A   Unknown
7:15 PM 44.6 °F 44.6 °F 100% 30.01 in 10.0 mi Calm Calm - N/A   Unknown
7:35 PM 44.6 °F 44.6 °F 100% 30.01 in 10.0 mi Calm Calm - N/A   Unknown
7:55 PM 44.6 °F 44.6 °F 100% 30.01 in 10.0 mi Calm Calm - N/A   Unknown
8:15 PM 44.6 °F 44.6 °F 100% 30.01 in 10.0 mi Calm Calm - N/A   Unknown
8:35 PM 44.6 °F 44.6 °F 100% 30.01 in 10.0 mi Calm Calm - N/A   Unknown
8:55 PM 44.6 °F 44.6 °F 100% 30.00 in 10.0 mi Calm Calm - N/A   Unknown
9:15 PM 44.6 °F 44.6 °F 100% 30.00 in 10.0 mi Calm Calm - N/A   Unknown
9:55 PM 44.6 °F 44.6 °F 100% 29.99 in 10.0 mi Calm Calm - N/A   Unknown
10:15 PM 46.4 °F 46.4 °F 100% 29.99 in 10.0 mi Calm Calm - N/A   Unknown
10:35 PM 46.4 °F 46.4 °F 100% 29.99 in 10.0 mi Calm Calm - N/A   Unknown
10:55 PM 46.4 °F 46.4 °F 100% 29.98 in 10.0 mi Calm Calm - N/A   Unknown
11:15 PM 46.4 °F 44.6 °F 93% 29.97 in 10.0 mi Calm Calm - N/A   Unknown
11:35 PM 46.4 °F 44.6 °F 93% 29.97 in 10.0 mi Calm Calm - N/A   Unknown
11:55 PM 44.6 °F 44.6 °F 100% 29.97 in 10.0 mi Calm Calm - N/A   Unknown